• Processing (Info)

  • MPEC 2013-T86 : 2013 TB80

    The following Minor Planet Electronic Circular may be linked-to from your own Web pages, but must not otherwise be redistributed electronically.

    A form allowing access to any MPEC is at the bottom of this page.


    Read MPEC 2013-T85 Read MPEC 2013-T87


    M.P.E.C. 2013-T86                                Issued 2013 Oct. 10, 16:21 UT
    
         The Minor Planet Electronic Circulars contain information on unusual
             minor planets and routine data on comets.  They are published
       on behalf of Commission 20 of the International Astronomical Union by the
              Minor Planet Center, Smithsonian Astrophysical Observatory,
                              Cambridge, MA 02138, U.S.A.
    
                 Prepared using the Tamkin Foundation Computer Network
    
                                  MPC@CFA.HARVARD.EDU
                URL http://www.minorplanetcenter.net/    ISSN 1523-6714
    
                                       2013 TB80
    
    Observations:
         K13T80B* C2013 10 09.33884 01 55 46.25 -12 40 28.5          17.9 RqET086H15
         K13T80B  C2013 10 09.34844 01 55 45.79 -12 40 27.8          17.6 RqET086H15
         K13T80B  C2013 10 09.35809 01 55 45.34 -12 40 26.9          17.5 RqET086H15
         K13T80B  C2013 10 09.36036 01 55 45.29 -12 40 26.4          17.9 VqET086703
         K13T80B  C2013 10 09.36764 01 55 44.87 -12 40 26.0          17.5 RqET086H15
         K13T80B  C2013 10 09.36816 01 55 44.95 -12 40 25.6          17.8 VqET086703
         K13T80B  C2013 10 09.37596 01 55 44.56 -12 40 25.0          17.8 VqET086703
         K13T80B  C2013 10 09.38390 01 55 44.18 -12 40 24.0          17.8 VqET086703
         K13T80B 1C2013 10 09.45115 01 55 42.49 -12 39 59.9          17.7 VcET086Q62
         K13T80B 1C2013 10 09.45329 01 55 42.39 -12 39 59.7          17.8 VcET086Q62
         K13T80B 1C2013 10 09.45541 01 55 42.29 -12 39 59.5          17.8 VcET086Q62
         K13T80B KC2013 10 09.61017 01 55 35.26 -12 39 43.7          17.7 VqET086E23
         K13T80B KC2013 10 09.61712 01 55 34.94 -12 39 42.8          17.9 VqET086E23
         K13T80B KC2013 10 09.62406 01 55 34.62 -12 39 42.1          17.9 VqET086E23
         K13T80B KC2013 10 09.97276 01 55 20.54 -12 39 18.3          17.5 RuET086958
         K13T80B KC2013 10 09.98457 01 55 20.02 -12 39 16.9          17.6 RuET086958
         K13T80B KC2013 10 09.99637 01 55 19.43 -12 39 16.1          18.0 RuET086958
         K13T80B KC2013 10 10.00858 01 55 18.86 -12 39 14.9          18.0 RuET086958
         K13T80B KC2013 10 10.01810 01 55 18.43 -12 39 14.3                qET086J95
         K13T80B KC2013 10 10.02369 01 55 18.18 -12 39 13.5                qET086J95
         K13T80B KC2013 10 10.02910 01 55 17.93 -12 39 13.0          17.8 RqET086J95
         K13T80B KC2013 10 10.16708 01 55 12.32 -12 38 36.2          18.4 VuET086I48
         K13T80B KC2013 10 10.17572 01 55 11.90 -12 38 35.1          18.2 VuET086I48
         K13T80B KC2013 10 10.18767 01 55 11.32 -12 38 32.9          18.3 VuET086I48
         K13T80B KC2013 10 10.26252001 55 08.04 -12 38 42.6          17.9  rET086H21
         K13T80B KC2013 10 10.26607 01 55 07.96 -12 38 40.3          17.8 RqET086850
         K13T80B KC2013 10 10.26633101 55 07.86 -12 38 42.1          17.8  rET086H21
         K13T80B KC2013 10 10.27013801 55 07.68 -12 38 41.6          17.9  rET086H21
         K13T80B KC2013 10 10.27442 01 55 07.56 -12 38 39.3          18.0 RqET086850
         K13T80B KC2013 10 10.28277 01 55 07.15 -12 38 38.4          18.1 RqET086850
         K13T80B $C2013 10 10.37981 01 55 03.58 -12 38 22.0          17.6 RuET086F65
         K13T80B $C2013 10 10.38614 01 55 03.27 -12 38 21.3          17.6 RuET086F65
         K13T80B $C2013 10 10.39191 01 55 02.99 -12 38 20.6          17.5 RuET086F65
         K13T80B  C2013 10 10.59664 01 54 54.07 -12 37 55.7          18.0 VqET086900
         K13T80B  C2013 10 10.60236 01 54 53.81 -12 37 54.9          17.9 VqET086900
         K13T80B  C2013 10 10.60808 01 54 53.55 -12 37 54.3          18.2 VqET086900
    
    Observer details:
    703 Catalina Sky Survey.  Observer J. A. Johnson.  Measurers A. Boattini,
        E. J. Christensen, A. R. Gibbs, A. D. Grauer, R. E. Hill, J. A. Johnson,
        R. A. Kowalski, S. M. Larson, F. C. Shelly.  0.68-m Schmidt + CCD.
    850 Cordell-Lorenz Observatory, Sewanee.  Observers D. T. Durig, Q. P. Tran,
        L. C. Cusano.  0.3-m f/5 Schmidt-Cassegrain + 1530x1020 CCD.
    900 Moriyama.  Observer Y. Ikari.  0.26-m f/7.0 reflector + CCD.
    958 Observatoire de Dax.  Observers P. Dupouy, J. B. de Vanssay.  Measurer
        P. Dupouy.  0.43-m f/2.7 reflector + CCD.
    E23 Arcadia.  Observer A. Hidas.  0.35-m Schmidt-Cassegrain + CCD.
    F65 Haleakala-Faulkes Telescope North.  Observers E. Guido, N. Howes,
        M. Nicolini.  2.0-m f/10.0 Ritchey-Chretien + CCD.
    H15 ISON-NM Observatory, Mayhill.  Observer L. Elenin.  Measurers L. Elenin,
        V. Savanevych, A. Bryukhovetskiy.  0.4-m f/3 reflector + CCD.
    H21 Astronomical Research Observatory, Westfield.  Observer R. Holmes.
        Measurers S. Foglia, L. Buzzi, H. Devore, A. Kostin, T. Linder,
        T. Lister. T.  0.61-m f/4.0 astrograph + CCD.
    I48 Observatorio El Catalejo, Santa Rosa.  Observer J. Spagnotto.  0.20-m f/5
        reflector + CCD.
    J95 Great Shefford.  Observer P. Birtwhistle.  0.40-m f/6.0 Schmidt-Cassegrain
        + CCD.
    Q62 iTelescope Observatory, Siding Spring.  Observer H. Sato.  0.51-m f/6.8
        astrograph + CCD + f/4.5 focal reducer.
    
    Orbital elements:
    2013 TB80                                                Earth MOID = 0.3018 AU
    Epoch 2013 Sept. 25.0 TT = JDT 2456560.5                MPC
    M 340.40861              (2000.0)            P               Q
    n   0.20658534     Peri.   17.98496     +0.23227728     -0.95407293
    a   2.8340209      Node    58.96817     +0.86307681     +0.11248544
    e   0.5480655      Incl.   12.75525     +0.44849268     +0.27765423
    P   4.77           H   17.4           G   0.15
    From 36 observations 2013 Oct. 9-10.
    
    Ephemeris:
    2013 TB80                a,e,i = 2.83, 0.55, 13                  q = 1.2808
    Date    TT    R. A. (2000) Decl.     Delta      r     Elong.  Phase     V
    2013 09 10    01 58 49.5 -11 40 42   0.8444  1.7325   138.5    22.6    19.3
    ...
    2013 09 25    02 01 24.6 -12 29 07   0.6955  1.6375   148.7    18.6    18.6
    ...
    2013 10 03    01 59 16.7 -12 43 05   0.6294  1.5889   153.5    16.3    18.3
    ...
    2013 10 09    01 55 59.9 -12 40 52   0.5863  1.5536   156.2    15.0    18.0
    2013 10 10    01 55 19.1 -12 39 03   0.5796  1.5478   156.6    14.9    18.0
    2013 10 11    01 54 36.3 -12 36 46   0.5732  1.5421   156.9    14.7    18.0
    ...
    2013 10 17    01 49 38.5 -12 11 53   0.5376  1.5085   157.9    14.4    17.8
    ...
    2013 10 25    01 41 37.8 -11 03 22   0.4992  1.4660   156.6    15.6    17.6
    ...
    2013 11 09    01 25 56.6 -06 42 27   0.4539  1.3951   147.6    22.4    17.5
    
    A. U. Tomatic                (C) Copyright 2013 MPC           M.P.E.C. 2013-T86
    

    Read MPEC 2013-T85 Read MPEC 2013-T87


    MPEC number:

    Enter an MPEC number in one of the following forms:

    • 1997-B01 (the full form)
    • J97B01 (the packed version of the full form)
    • B01 (the abbreviated form)